GW6393 Weather Reports


Display with metric or nautical units.
time (UTC)temp
F
wind
direction
speed
MPH
gust
MPH
rain 1hr
in
rain 24hr
in
rain mn
in
humidity
%
barometer
mb
20260507164020 62 9 4.0 8.0 0.00 0.00 0.00 35 1012.0
20260507163532 61 21 3.0 8.0 0.00 0.00 0.00 37 1012.1
20260507163138 60 18 3.0 8.0 0.00 0.00 0.00 36 1012.0
20260507162528 59 321 3.0 8.0 0.00 0.00 0.00 36 1012.1
20260507162045 58 325 3.0 8.0 0.00 0.00 0.00 38 1012.1
20260507161623 58 330 2.0 8.0 0.00 0.00 0.00 35 1012.2
20260507161038 58 350 3.0 8.0 0.00 0.00 0.00 35 1012.2
20260507160542 58 325 4.0 8.0 0.00 0.00 0.00 36 1012.2
20260507160131 57 335 3.0 9.0 0.00 0.00 0.00 35 1012.3
20260507155540 57 326 2.0 9.0 0.00 0.00 0.00 35 1012.2
20260507155024 56 217 2.0 5.0 0.00 0.00 0.00 37 1012.4
20260507154617 55 17 1.0 5.0 0.00 0.00 0.00 35 1012.4
20260507154021 54 235 1.0 5.0 0.00 0.00 0.00 35 1012.2
20260507153547 54 262 2.0 5.0 0.00 0.00 0.00 35 1012.3
20260507153130 53 269 1.0 4.0 0.00 0.00 0.00 36 1012.4
20260507152540 53 340 2.0 4.0 0.00 0.00 0.00 36 1012.5
20260507152033 52 239 2.0 4.0 0.00 0.00 0.00 37 1012.4
20260507151611 51 239 1.0 4.0 0.00 0.00 0.00 39 1012.5
20260507151019 51 223 2.0 6.0 0.00 0.00 0.00 38 1012.4
20260507150523 51 244 3.0 6.0 0.00 0.00 0.00 39 1012.5
20260507150132 50 245 3.0 6.0 0.00 0.00 0.00 40 1012.4
20260507145534 50 220 4.0 6.0 0.00 0.00 0.00 40 1012.3
20260507145017 49 220 3.0 6.0 0.00 0.00 0.00 40 1012.4
20260507144635 49 255 2.0 5.0 0.00 0.00 0.00 41 1012.3
20260507144022 48 260 3.0 5.0 0.00 0.00 0.00 41 1012.4
20260507143541 48 275 2.0 4.0 0.00 0.00 0.00 41 1012.3
20260507143118 48 265 2.0 4.0 0.00 0.00 0.00 42 1012.2
20260507142528 48 257 2.0 5.0 0.00 0.00 0.00 41 1012.2
20260507142024 47 256 2.0 5.0 0.00 0.00 0.00 42 1012.1
20260507141646 47 290 2.0 4.0 0.00 0.00 0.00 42 1012.1
20260507141023 47 292 1.0 4.0 0.00 0.00 0.00 42 1012.1
20260507140542 46 294 0.0 4.0 0.00 0.00 0.00 43 1012.1
20260507140137 46 294 2.0 4.0 0.00 0.00 0.00 43 1012.1
20260507135519 46 313 0.0 2.0 0.00 0.00 0.00 44 1011.9
20260507135045 45 313 0.0 2.0 0.00 0.00 0.00 44 1012.0
20260507134633 45 313 0.0 3.0 0.00 0.00 0.00 44 1011.9
20260507134034 45 338 1.0 3.0 0.00 0.00 0.00 44 1011.9
20260507133541 45 338 1.0 2.0 0.00 0.00 0.00 45 1011.9
20260507133136 45 337 1.0 3.0 0.00 0.00 0.00 45 1012.0
20260507132527 44 338 1.0 4.0 0.00 0.00 0.00 46 1011.9
20260507132030 44 360 2.0 6.0 0.00 0.00 0.00 46 1012.1
20260507131634 44 345 3.0 6.0 0.00 0.00 0.00 46 1012.2
20260507131021 44 9 2.0 5.0 0.00 0.00 0.00 48 1012.0
20260507130541 44 5 3.0 4.0 0.00 0.00 0.00 47 1011.9
20260507130135 44 351 1.0 4.0 0.00 0.00 0.00 47 1011.9
20260507125535 44 338 2.0 4.0 0.00 0.00 0.00 47 1011.7
20260507125030 44 5 2.0 4.0 0.00 0.00 0.00 47 1011.8
20260507124631 44 11 2.0 3.0 0.00 0.00 0.00 48 1011.7
20260507124042 44 11 1.0 3.0 0.00 0.00 0.00 48 1011.6
20260507123524 44 11 0.0 3.0 0.00 0.00 0.00 47 1011.5
20260507123129 44 11 1.0 3.0 0.00 0.00 0.00 47 1011.6
20260507122540 44 11 0.0 4.0 0.00 0.00 0.00 47 1011.4
20260507122019 44 11 2.0 5.0 0.00 0.00 0.00 46 1011.3
20260507121634 44 5 3.0 6.0 0.00 0.00 0.00 45 1011.4
20260507121020 44 5 3.0 6.0 0.00 0.00 0.00 44 1011.4
20260507120542 44 337 1.0 5.0 0.00 0.00 0.00 45 1011.2
20260507120154 43 331 3.0 5.0 0.00 0.00 0.00 45 1011.2
20260507115525 43 313 1.0 3.0 0.00 0.00 0.00 46 1011.3
20260507115028 43 313 0.0 2.0 0.00 0.00 0.00 47 1011.1
20260507114638 43 313 0.0 3.0 0.00 0.00 0.00 47 1011.2
20260507114025 43 313 1.0 2.0 0.00 0.00 0.00 47 1011.1
20260507113520 43 313 0.0 2.0 0.00 0.00 0.00 48 1011.0
20260507113140 42 313 0.0 4.0 0.00 0.00 0.00 48 1010.9
20260507112534 43 313 0.0 5.0 0.00 0.00 0.00 48 1010.8
20260507112038 43 319 1.0 5.0 0.00 0.00 0.00 48 1010.7
20260507111632 43 5 3.0 6.0 0.00 0.00 0.00 48 1010.6
20260507111045 42 12 2.0 7.0 0.00 0.00 0.00 48 1010.4
20260507110538 42 16 1.0 6.0 0.00 0.00 0.00 48 1010.6
20260507110135 42 16 2.0 8.0 0.00 0.00 0.00 48 1010.7
20260507105522 42 360 4.0 8.0 0.00 0.00 0.00 48 1010.3
20260507105025 43 31 3.0 8.0 0.00 0.00 0.00 48 1010.5
20260507104631 43 28 3.0 8.0 0.00 0.00 0.00 49 1010.2
20260507104033 44 34 2.0 5.0 0.00 0.00 0.00 51 1010.2
20260507103543 45 18 3.0 5.0 0.00 0.00 0.00 50 1010.0
20260507103131 45 329 2.0 5.0 0.00 0.00 0.00 50 1010.0
20260507102520 44 321 1.0 7.0 0.00 0.00 0.00 51 1009.8
20260507102029 44 283 2.0 7.0 0.00 0.00 0.00 51 1009.7
20260507101639 44 267 2.0 8.0 0.00 0.00 0.00 51 1009.7
20260507101045 44 281 5.0 8.0 0.00 0.00 0.00 52 1009.5
20260507100525 44 255 1.0 6.0 0.00 0.00 0.00 52 1009.6
20260507100138 44 265 1.0 6.0 0.00 0.00 0.00 53 1009.4
20260507095530 43 286 2.0 7.0 0.00 0.00 0.00 54 1009.4
20260507095044 43 283 3.0 7.0 0.00 0.00 0.00 55 1009.6
20260507094633 43 322 2.0 4.0 0.00 0.00 0.00 55 1009.7
20260507094025 43 296 0.0 3.0 0.00 0.00 0.00 54 1009.5
20260507093523 43 310 2.0 3.0 0.00 0.00 0.00 53 1009.4
20260507093110 43 360 1.0 3.0 0.00 0.00 0.00 54 1009.5
20260507092518 43 360 1.0 3.0 0.00 0.00 0.00 54 1009.6
20260507092030 43 352 2.0 3.0 0.00 0.00 0.00 53 1009.5
20260507091616 43 294 1.0 3.0 0.00 0.00 0.00 53 1009.3
20260507091023 44 316 1.0 4.0 0.00 0.00 0.00 52 1009.4
20260507090541 44 312 2.0 4.0 0.00 0.00 0.00 52 1009.5
20260507090140 45 319 2.0 4.0 0.00 0.00 0.00 51 1009.5
20260507085530 45 61 0.0 2.0 0.00 0.00 0.00 51 1009.4
20260507085049 46 61 0.0 2.0 0.00 0.00 0.00 51 1009.3
20260507084622 45 61 0.0 2.0 0.00 0.00 0.00 51 1009.3
20260507084044 45 61 0.0 2.0 0.00 0.00 0.00 52 1009.3
20260507083519 45 61 1.0 2.0 0.00 0.00 0.00 52 1009.4
20260507083102 45 61 1.0 3.0 0.00 0.00 0.00 52 1009.3
20260507082532 46 61 0.0 3.0 0.00 0.00 0.00 51 1009.4
20260507082041 46 61 0.0 3.0 0.00 0.00 0.00 50 1009.4
20260507081639 46 42 1.0 4.0 0.00 0.00 0.00 50 1009.4
20260507081040 47 46 2.0 4.0 0.00 0.00 0.00 49 1009.7
20260507080538 47 48 1.0 5.0 0.00 0.00 0.00 47 1009.7
20260507080118 47 48 2.0 5.0 0.00 0.00 0.00 45 1009.5
20260507075519 48 206 0.0 1.0 0.00 0.00 0.00 45 1009.3
20260507075043 48 206 0.0 2.0 0.00 0.00 0.00 45 1009.2
20260507074645 47 206 0.0 2.0 0.00 0.00 0.00 45 1009.2
20260507074031 47 206 1.0 3.0 0.00 0.00 0.00 45 1009.0
20260507073539 47 206 1.0 3.0 0.00 0.00 0.00 45 1009.1
20260507073142 47 206 2.0 3.0 0.00 0.00 0.00 45 1009.0
20260507072517 47 169 2.0 4.0 0.00 0.00 0.00 45 1009.0
20260507072017 47 169 1.0 3.0 0.00 0.00 0.00 45 1009.1
20260507071645 48 169 1.0 5.0 0.00 0.00 0.00 44 1009.1
20260507071036 48 174 1.0 5.0 0.00 0.00 0.00 42 1008.9
20260507070523 49 138 0.0 4.0 0.00 0.00 0.00 42 1009.0
20260507070146 50 124 2.0 4.0 0.00 0.00 0.00 41 1009.1
20260507065544 50 80 1.0 9.0 0.00 0.00 0.00 42 1009.2
20260507065030 51 80 3.0 9.0 0.00 0.00 0.00 42 1009.2
20260507064623 51 55 2.0 6.0 0.00 0.00 0.00 39 1009.3
20260507064036 52 63 3.0 6.0 0.00 0.00 0.00 38 1009.0
20260507063526 52 58 4.0 6.0 0.00 0.00 0.00 38 1009.2
20260507063110 52 69 2.0 7.0 0.00 0.00 0.00 37 1009.2
20260507062530 52 64 4.0 6.0 0.00 0.00 0.00 36 1009.2
20260507062136 52 80 3.0 5.0 0.00 0.00 0.00 35 1008.9
20260507061731 52 57 2.0 4.0 0.00 0.00 0.00 36 1008.9
20260507061040 52 50 1.0 3.0 0.00 0.00 0.00 36 1008.9
20260507060546 52 55 1.0 3.0 0.00 0.00 0.00 36 1008.9
20260507060214 52 55 1.0 5.0 0.00 0.00 0.00 36 1008.9
20260507055525 52 55 1.0 5.0 0.00 0.00 0.00 35 1008.9
20260507055041 52 80 1.0 5.0 0.00 0.00 0.00 35 1008.9
20260507054712 53 76 2.0 4.0 0.00 0.00 0.00 35 1008.9
20260507054041 53 84 2.0 5.0 0.00 0.00 0.00 36 1009.0
20260507053542 53 84 3.0 5.0 0.00 0.00 0.00 36 1009.0
20260507053233 53 63 3.0 9.0 0.00 0.00 0.00 36 1009.2
20260507052530 53 51 2.0 11.0 0.00 0.00 0.00 35 1009.3
20260507052020 54 60 6.0 11.0 0.00 0.00 0.00 36 1009.3
20260507051735 54 46 2.0 6.0 0.00 0.00 0.00 36 1009.2
20260507051039 54 180 0.0 2.0 0.00 0.00 0.00 36 1009.0
20260507050542 54 180 0.0 2.0 0.00 0.00 0.00 37 1009.0
20260507050127 54 180 0.0 3.0 0.00 0.00 0.00 37 1009.1
20260507045530 54 180 0.0 10.0 0.00 0.00 0.00 36 1009.2
20260507045018 53 214 6.0 10.0 0.00 0.00 0.00 37 1009.1
20260507044737 52 227 7.0 9.0 0.00 0.00 0.00 41 1009.0
20260507044035 53 48 0.0 2.0 0.00 0.00 0.00 42 1008.9
20260507043525 53 48 0.0 2.0 0.00 0.00 0.00 40 1008.6
20260507043229 52 48 0.0 2.0 0.00 0.00 0.00 41 1008.5
20260507042535 52 48 0.0 1.0 0.00 0.00 0.00 39 1008.8
20260507042029 52 48 0.0 2.0 0.00 0.00 0.00 41 1008.7
20260507041649 52 48 0.0 4.0 0.00 0.00 0.00 42 1008.6
20260507041034 52 48 1.0 4.0 0.00 0.00 0.00 43 1008.5
20260507040525 53 146 1.0 6.0 0.00 0.00 0.00 42 1008.3
20260507040303 53 146 2.0 6.0 0.00 0.00 0.00 39 1008.1
20260507035524 53 92 1.0 6.0 0.00 0.00 0.00 46 1008.3
20260507035030 53 77 2.0 6.0 0.00 0.00 0.00 40 1008.3
20260507034732 53 32 2.0 5.0 0.00 0.00 0.00 42 1008.2
20260507034024 54 138 1.0 3.0 0.00 0.00 0.00 34 1007.8
20260507033519 54 45 2.0 3.0 0.00 0.00 0.00 32 1008.5
20260507033255 54 101 1.0 2.0 0.00 0.00 0.00 32 1008.5
20260507032524 54 136 0.0 6.0 0.00 0.00 0.00 32 1007.9
20260507032019 54 136 1.0 6.0 0.00 0.00 0.00 31 1007.6
20260507031750 54 86 1.0 2.0 0.00 0.00 0.00 31 1007.3
20260507031039 55 86 1.0 2.0 0.00 0.00 0.00 31 1007.1
20260507030531 55 86 1.0 2.0 0.00 0.00 0.00 31 1007.2
20260507030243 56 86 1.0 2.0 0.00 0.00 0.00 30 1007.1
20260507025530 56 86 1.0 2.0 0.00 0.00 0.00 30 1007.2
20260507025030 57 86 1.0 2.0 0.00 0.00 0.00 29 1007.3
20260507024710 57 86 1.0 2.0 0.00 0.00 0.00 29 1007.2
20260507024024 57 86 1.0 2.0 0.00 0.00 0.00 29 1007.3
20260507023527 58 86 0.0 2.0 0.00 0.00 0.00 29 1007.4
20260507023212 58 86 0.0 1.0 0.00 0.00 0.00 28 1007.6
20260507022520 59 86 1.0 2.0 0.00 0.00 0.00 28 1007.5
20260507022024 59 86 1.0 2.0 0.00 0.00 0.00 28 1007.7
20260507021719 60 86 1.0 2.0 0.00 0.00 0.00 27 1007.4
20260507021041 61 86 2.0 2.0 0.00 0.00 0.00 24 1007.5
20260507020531 62 86 1.0 4.0 0.00 0.00 0.00 24 1007.5
20260507020208 64 86 2.0 4.0 0.00 0.00 0.00 24 1007.5
20260507015534 64 86 0.0 2.0 0.00 0.00 0.00 23 1007.3
20260507015018 65 86 0.0 2.0 0.00 0.00 0.00 23 1007.3
20260507014714 66 86 0.0 2.0 0.00 0.00 0.00 23 1007.4
20260507014042 66 86 0.0 2.0 0.00 0.00 0.00 22 1007.3
20260507013541 67 86 1.0 5.0 0.00 0.00 0.00 22 1007.2
20260507013129 67 86 1.0 5.0 0.00 0.00 0.00 21 1007.4
20260507012542 67 82 1.0 4.0 0.00 0.00 0.00 21 1007.4
20260507012046 67 82 1.0 4.0 0.00 0.00 0.00 21 1007.4
20260507011659 68 80 2.0 4.0 0.00 0.00 0.00 21 1007.5
20260507011042 68 84 2.0 4.0 0.00 0.00 0.00 21 1007.4
20260507010529 68 113 2.0 4.0 0.00 0.00 0.00 21 1007.5
20260507010203 68 123 1.0 4.0 0.00 0.00 0.00 21 1007.4
20260507005524 67 128 2.0 4.0 0.00 0.00 0.00 21 1007.4
20260507005030 67 117 2.0 4.0 0.00 0.00 0.00 21 1007.5
20260507004703 68 128 2.0 7.0 0.00 0.00 0.00 20 1007.5
20260507004020 68 101 4.0 7.0 0.00 0.00 0.00 20 1007.5
20260507003525 68 94 2.0 6.0 0.00 0.00 0.00 20 1007.5
20260507003207 68 77 4.0 6.0 0.00 0.00 0.00 21 1007.6
20260507002524 67 101 3.0 6.0 0.00 0.00 0.00 21 1007.7
20260507002024 67 84 3.0 6.0 0.00 0.00 0.00 21 1007.7
20260507001723 68 70 3.0 6.0 0.00 0.00 0.00 21 1007.7
20260507001041 69 19 2.0 6.0 0.00 0.00 0.00 21 1007.7
20260507000540 68 51 2.0 8.0 0.00 0.00 0.00 20 1007.9
20260507000231 68 30 3.0 8.0 0.00 0.00 0.00 21 1007.9
20260506235531 69 29 3.0 9.0 0.00 0.00 0.00 19 1007.9
20260506235037 69 348 2.0 9.0 0.00 0.00 0.00 19 1008.1
20260506234611 69 343 3.0 6.0 0.00 0.00 0.00 19 1008.1
20260506234026 69 249 1.0 6.0 0.00 0.00 0.00 20 1008.0
20260506233524 69 5 2.0 10.0 0.00 0.00 0.00 19 1008.1
20260506233201 69 32 2.0 10.0 0.00 0.00 0.00 18 1008.1
20260506232542 70 63 2.0 14.0 0.00 0.00 0.00 20 1008.1
20260506232028 69 5 5.0 14.0 0.00 0.00 0.00 21 1008.3
20260506231658 68 345 2.0 9.0 0.00 0.00 0.00 20 1008.4
20260506231024 68 40 2.0 9.0 0.00 0.00 0.00 19 1008.6
20260506230540 68 263 3.0 10.0 0.00 0.00 0.00 19 1008.7
20260506230203 68 270 4.0 10.0 0.00 0.00 0.00 19 1008.8
20260506225537 68 261 4.0 11.0 0.00 0.00 0.00 20 1008.8
20260506225042 68 230 6.0 11.0 0.00 0.00 0.00 20 1008.9
20260506224712 67 314 3.0 8.0 0.00 0.00 0.00 20 1008.9
20260506224024 67 24 3.0 8.0 0.00 0.00 0.00 20 1008.9
20260506223523 66 327 4.0 14.0 0.00 0.00 0.00 20 1009.2
20260506223211 66 20 5.0 14.0 0.00 0.00 0.00 19 1009.4
20260506222528 67 336 4.0 11.0 0.00 0.00 0.00 20 1009.5
20260506222034 66 319 4.0 11.0 0.00 0.00 0.00 19 1009.5
20260506221706 66 286 4.0 10.0 0.00 0.00 0.00 19 1009.6
20260506221029 66 48 4.0 9.0 0.00 0.00 0.00 20 1009.6
20260506220544 66 274 2.0 12.0 0.00 0.00 0.00 20 1009.8
20260506220214 66 328 4.0 13.0 0.00 0.00 0.00 20 1009.9
20260506215529 66 331 4.0 13.0 0.00 0.00 0.00 19 1009.8
20260506215022 66 246 4.0 12.0 0.00 0.00 0.00 20 1010.0
20260506214657 66 246 4.0 16.0 0.00 0.00 0.00 20 1010.2
20260506214022 66 233 4.0 16.0 0.00 0.00 0.00 19 1010.0
20260506213544 65 244 5.0 12.0 0.00 0.00 0.00 21 1010.2
20260506213214 64 240 1.0 10.0 0.00 0.00 0.00 21 1010.2
20260506212525 63 233 4.0 13.0 0.00 0.00 0.00 20 1010.2
20260506212033 64 219 6.0 13.0 0.00 0.00 0.00 20 1010.4
20260506211719 64 261 7.0 13.0 0.00 0.00 0.00 20 1010.5
20260506211039 63 217 5.0 13.0 0.00 0.00 0.00 20 1010.6
20260506210520 63 283 0.0 13.0 0.00 0.00 0.00 20 1010.6
20260506210212 64 244 6.0 13.0 0.00 0.00 0.00 20 1010.7
20260506205524 64 275 3.0 16.0 0.00 0.00 0.00 20 1010.8
20260506205023 63 270 8.0 15.0 0.00 0.00 0.00 22 1010.9
20260506204709 62 197 3.0 14.0 0.00 0.00 0.00 22 1011.0
20260506204029 62 252 5.0 13.0 0.00 0.00 0.00 22 1011.1
20260506203531 62 326 3.0 12.0 0.00 0.00 0.00 21 1011.2
20260506203224 63 221 9.0 19.0 0.00 0.00 0.00 22 1011.5
20260506202529 62 276 7.0 19.0 0.00 0.00 0.00 22 1011.4
20260506202037 61 229 7.0 14.0 0.00 0.00 0.00 23 1011.7
20260506201713 61 244 6.0 16.0 0.00 0.00 0.00 21 1011.7
20260506201130 61 258 7.0 16.0 0.00 0.00 0.00 23 1011.8
20260506200522 61 279 8.0 14.0 0.00 0.00 0.00 22 1011.9
20260506200216 60 338 2.0 13.0 0.00 0.00 0.00 22 1011.9
20260506195539 60 249 5.0 17.0 0.00 0.00 0.00 22 1012.0
20260506195028 59 273 6.0 17.0 0.00 0.00 0.00 23 1012.2
20260506194658 59 228 10.0 17.0 0.00 0.00 0.00 22 1012.3
20260506194046 60 294 8.0 16.0 0.00 0.00 0.00 23 1012.2
20260506193528 59 218 8.0 16.0 0.00 0.00 0.00 22 1012.3
20260506193149 59 207 7.0 14.0 0.00 0.00 0.00 23 1012.4
20260506192520 59 279 8.0 17.0 0.00 0.00 0.00 23 1012.4
20260506192021 59 251 9.0 17.0 0.00 0.00 0.00 23 1012.7
20260506191614 58 257 9.0 12.0 0.00 0.00 0.00 22 1012.6
20260506191028 58 217 7.0 13.0 0.00 0.00 0.00 23 1012.7
20260506190541 57 214 4.0 12.0 0.00 0.00 0.00 23 1012.9
20260506190224 57 217 5.0 13.0 0.00 0.00 0.00 24 1013.0
20260506185535 57 271 7.0 15.0 0.00 0.00 0.00 23 1013.2
20260506185021 57 232 12.0 14.0 0.00 0.00 0.00 24 1013.3
20260506184647 56 209 10.0 14.0 0.00 0.00 0.00 23 1013.3
20260506184024 56 340 4.0 15.0 0.00 0.00 0.00 24 1013.4
20260506183521 55 248 9.0 15.0 0.00 0.00 0.00 24 1013.5
20260506183152 55 243 4.0 16.0 0.00 0.00 0.00 24 1013.7
20260506182535 55 221 8.0 16.0 0.00 0.00 0.00 24 1013.7
20260506182035 55 211 10.0 15.0 0.00 0.00 0.00 24 1013.7
20260506181653 55 245 7.0 12.0 0.00 0.00 0.00 25 1013.7
20260506181042 54 246 5.0 17.0 0.00 0.00 0.00 24 1013.9
20260506180527 53 240 8.0 17.0 0.00 0.00 0.00 24 1014.0
20260506180210 53 212 6.0 16.0 0.00 0.00 0.00 26 1014.0
20260506175545 53 209 8.0 16.0 0.00 0.00 0.00 27 1014.1
20260506175027 54 256 3.0 13.0 0.00 0.00 0.00 27 1014.3
20260506174644 53 225 7.0 13.0 0.00 0.00 0.00 29 1014.5
20260506174025 53 257 5.0 11.0 0.00 0.00 0.00 29 1014.5
20260506173544 53 216 7.0 11.0 0.00 0.00 0.00 28 1014.7
20260506173144 53 217 6.0 11.0 0.00 0.00 0.00 30 1014.9
20260506172542 53 237 7.0 12.0 0.00 0.00 0.00 30 1015.0
20260506172045 52 244 8.0 13.0 0.00 0.00 0.00 32 1015.0
20260506171643 52 228 8.0 16.0 0.00 0.00 0.00 32 1015.0
20260506171024 52 220 7.0 16.0 0.00 0.00 0.00 33 1015.1
20260506170533 51 227 10.0 16.0 0.00 0.00 0.00 33 1015.3
20260506170210 51 236 8.0 16.0 0.00 0.00 0.00 34 1015.2
20260506165534 51 259 9.0 18.0 0.00 0.00 0.00 35 1015.3
20260506165039 51 254 8.0 18.0 0.00 0.00 0.00 38 1015.4
20260506164647 50 212 10.0 18.0 0.00 0.00 0.00 38 1015.5